Flag for Belgium Weather past 2 weeks in Leuven, Belgium

52 °F


Feels Like: 51 °F
Forecast: 41 / 55 °F
Wind: 5 mph from Northeast

Location: Brussels National Airport

Current Time: Oct 10, 2015 at 9:24:13 AM

Latest Report: Oct 10, 2015 at 8:50 AM

Visibility: 2 mi

Pressure: 30.12 "Hg

Humidity: 94%

Dew point: 50 °F

Location of LeuvenLocation

Historic Weather in Leuven — Graph


Leuven temperature yesterday

Maximum temperature yesterday: 61 °F (at 3:50 PM)
Minimum temperature yesterday: 41 °F (at 6:20 AM)
Average temperature yesterday: 50 °F

Past Weeks' High & Low Weather Summary

High68 °F (Oct 3, 4:20 PM)100% (Sep 26, 2:20 AM)30.63 "Hg (Sep 26, 2:20 AM)
Low37 °F (Oct 2, 5:20 AM)45% (Sep 30, 2:20 PM)29.53 "Hg (Oct 6, 4:20 PM)
Average53 °F81%30.18 "Hg
* Reported Sep 25 7:20 AM — Oct 10 7:50 AM, Leuven, Weather by CustomWeather, © 2015

Note: Actual official high and low records may vary slightly from our data, if they occured in-between our weather recording intervals... More about our weather records


Leuven weather history for previous 24 hours

Time TempWeatherWind HumidityBarometerVisibility
7:50 AM
Sat, Oct 10
50 °FFog.5 mph94%30.12 "Hg2 mi
7:20 AM50 °FFog.5 mph94%30.12 "Hg2 mi
6:50 AM50 °FFog.5 mph94%30.12 "Hg2 mi
6:20 AM46 °FFog.No wind100%30.12 "Hg2 mi
5:50 AM46 °FFog.1 mph100%30.12 "Hg2 mi
5:20 AM45 °FFog.2 mph100%30.12 "Hg2 mi
4:50 AM46 °FFog.2 mph100%30.12 "Hg2 mi
4:20 AM46 °FFog.2 mph100%30.12 "Hg2 mi
3:50 AM46 °FFog.2 mph100%30.15 "Hg3 mi
3:20 AM48 °FPassing clouds.1 mph94%30.15 "Hg4 mi
2:50 AM48 °FPassing clouds.No wind94%30.15 "Hg4 mi
2:20 AM48 °FPassing clouds.1 mph94%30.15 "Hg4 mi
1:50 AM48 °FFog.No wind94%30.15 "Hg3 mi
1:20 AM46 °FClear.1 mph100%30.15 "Hg4 mi
12:50 AM46 °FClear.1 mph100%30.15 "Hg4 mi
12:20 AM46 °FFog.1 mph100%30.15 "Hg6 mi
11:50 PM
Fri, Oct 9
45 °FFog.1 mph100%30.18 "Hg6 mi
10:50 PM48 °FClear.2 mph94%30.18 "Hg10 mi
10:20 PM50 °FClear.2 mph88%30.18 "Hg10 mi
9:50 PM50 °FClear.1 mph94%30.18 "Hg10 mi
9:20 PM48 °FClear.1 mph94%30.18 "Hg10 mi
8:50 PM50 °FClear.2 mph88%30.18 "Hg10 mi
8:20 PM54 °FClear.2 mph82%30.15 "Hg10 mi
7:50 PM52 °FSunny.1 mph88%30.15 "Hg10 mi
7:20 PM55 °FSunny.2 mph72%30.15 "Hg10 mi
6:50 PM55 °FSunny.2 mph77%30.15 "Hg10 mi
6:20 PM57 °FSunny.3 mph72%30.15 "Hg10 mi
5:50 PM59 °FSunny.5 mph63%30.15 "Hg10 mi
5:20 PM59 °FPassing clouds.3 mph68%30.15 "HgN/A
4:50 PM61 °FPassing clouds.1 mph55%30.18 "HgN/A
4:20 PM61 °FPassing clouds.1 mph63%30.18 "HgN/A
3:50 PM61 °FPassing clouds.1 mph59%30.18 "HgN/A
3:20 PM59 °FPassing clouds.2 mph63%30.18 "HgN/A
2:50 PM59 °FPassing clouds.2 mph63%30.18 "HgN/A
2:20 PM59 °FPassing clouds.1 mph68%30.18 "HgN/A
1:50 PM59 °FPassing clouds.No wind68%30.18 "HgN/A
1:20 PM59 °FSunny.1 mph68%30.18 "Hg10 mi
12:50 PM57 °FSunny.1 mph67%30.18 "Hg10 mi
12:20 PM55 °FSunny.2 mph77%30.18 "Hg10 mi
11:50 AM55 °FSunny.2 mph72%30.21 "Hg10 mi
11:20 AM55 °FSunny.1 mph77%30.21 "Hg10 mi
10:50 AM54 °FSunny.No wind77%30.21 "Hg10 mi
10:20 AM52 °FSunny.2 mph82%30.21 "Hg10 mi
9:50 AM50 °FSunny.1 mph88%30.21 "Hg10 mi
9:20 AM46 °FPassing clouds.3 mph93%30.18 "HgN/A
Weather by CustomWeather, © 2015

See weather overviewHow to use our weather pages